{"data":{"norad_id":55386,"intl_designator":"2023-013BH","name":"STARLINK-5555","alt_names":[],"object_type":"PAYLOAD","status":"ACTIVE","operator":null,"country":"US","launch_date":"2023-01-26","launch_site_code":"AFETR","launch_vehicle":null,"mission":null,"orbit_class":"UNKNOWN","rcs_meters":null,"size_class":null,"mass_kg":null,"dimensions":null,"purposes":["comms"],"wikipedia_slug":null,"has_3d_model":false,"image_url":null,"decayed_at":null,"tle_current":{"epoch":"2026-09-20T13:37:35.359968Z","epoch_age_seconds":90829,"freshness":"FRESH","line1":"1 55386U 23013BH  26263.56777037 -.00000388  00000+0 -45366-5 0  9996","line2":"2 55386  43.0043 297.8492 0003131 246.0526 113.9997 15.27580812201301","mean_motion":15.27580812,"eccentricity":0.0003131,"inclination_deg":43.0043,"raan_deg":297.8492,"arg_perigee_deg":246.0526,"mean_anomaly_deg":113.9997,"bstar":-4.5366e-6,"rev_number":20130,"period_min":94.266698605272,"perigee_km":480.89842801522,"apogee_km":485.19490122601,"semimajor_km":6861.1836646206,"source":"CELESTRAK","updated_at":"2026-09-21T09:00:33.212993Z"}}}